write mail from CFAD0::NAKANO on 2004-06-02 06:08:27(JST).

 

    C/2003 A2 (Gleason)                                                   

Epoch 2003 Nov. 17.0 TT = JDT 2452960.5  

T 2003 Nov. 5.80770 TT                                  Nakano

q  11.4269259            (2000.0)            P               Q

z  -0.0006007      Peri.  346.66664     -0.78044074     -0.62231777

 +/-0.0000038      Node   154.54464     +0.58573330     -0.76145425

e   1.0068640      Incl.    8.06131     +0.21869788     -0.18140566

From 118 observations 2002 Jan. 8-2004 Feb. 18, mean residual 0".60.

   (1/a)org.= +0.000037, (1/a)fut.= +0.000130 (+/-0.000004), Q= 8.



NAKANO

         **** Don't distribute anyone except personal use only ****

                (C) Copyright 2004 OAA/ComputingSection

write mail from CFAD0::NAKANO on 2004-02-22 01:35:38(JST).

 

◎C/2003 A2の軌道と予報位置です



 久万の中村彰正氏によって行なわれた最終観測(HICQ 2004)から,ほぼ,

1年後の観測のずれは,約4".氏の CCD全光度は,1月17日が19.1等,31日

が18.6等でした.



    C/2003 A2 (Gleason)                                                   

Epoch 2003 Nov. 17.0 TT = JDT 2452960.5  

T 2003 Nov. 5.80812 TT                                  Nakano

q  11.4269271            (2000.0)            P               Q

z  -0.0006008      Peri.  346.66637     -0.78044094     -0.62231765

 +/-0.0000040      Node   154.54493     +0.58573318     -0.76145397

e   1.0068652      Incl.    8.06123     +0.21869749     -0.18140726

From 112 observations 2002 Jan. 8-2004 Jan. 31, mean residual 0".60.

   (1/a)org.= +0.000037, (1/a)fut.= +0.000130 (+/-0.000004), Q= 8.



Date/        TT  R.A.(2000) Decl.     Delta   r     Daily motion  Mag.  Moon Age

              h    h  m       。  ,                      ,  / PA 。  m1      。

2004 Feb.  1 18  09 49.46  +11 31.1  10.475 11.436     3.2 / 295  18.5   66  .81

           2 18  09 49.26  +11 32.4  10.472 11.436     3.3 / 295  18.5   54  .88

           3 18  09 49.05  +11 33.8  10.468 11.436     3.3 / 295  18.5   42  .93

           4 18  09 48.85  +11 35.2  10.465 11.436     3.3 / 295  18.5   30  .97

           5 18  09 48.65  +11 36.6  10.462 11.436     3.3 / 295  18.5   18  .99

           6 18  09 48.44  +11 38.0  10.460 11.437     3.3 / 295  18.5    7 1.00

           7 18  09 48.23  +11 39.4  10.458 11.437     3.4 / 295  18.5   11  .98

           8 18  09 48.03  +11 40.8  10.456 11.437     3.4 / 295  18.5   23  .94

           9 18  09 47.82  +11 42.2  10.454 11.437     3.4 / 295  18.5   37  .88

          10 18  09 47.61  +11 43.6  10.453 11.438     3.4 / 295  18.5   50  .79

          11 18  09 47.40  +11 45.0  10.452 11.438     3.4 / 295  18.5   64  .70

          12 18  09 47.19  +11 46.5  10.452 11.438     3.4 / 295  18.5   78  .59

          13 18  09 46.98  +11 47.9  10.451 11.438     3.4 / 295  18.5   92  .48

          14 18  09 46.77  +11 49.3  10.451 11.438     3.4 / 295  18.5  106  .37

          15 18  09 46.56  +11 50.8  10.452 11.439     3.4 / 295  18.5  120  .26

          16 18  09 46.35  +11 52.2  10.452 11.439     3.4 / 295  18.5  134  .17

          17 18  09 46.14  +11 53.6  10.453 11.439     3.4 / 295  18.5  148  .09

          18 18  09 45.93  +11 55.1  10.454 11.439     3.4 / 295  18.5  162  .04

          19 18  09 45.72  +11 56.5  10.456 11.440     3.4 / 295  18.5  173  .01

          20 18  09 45.52  +11 57.9  10.458 11.440     3.4 / 295  18.5  167  .00

          21 18  09 45.31  +11 59.4  10.460 11.440     3.3 / 295  18.5  154  .02

          22 18  09 45.10  +12 00.8  10.462 11.440     3.3 / 295  18.5  141  .07

          23 18  09 44.90  +12 02.2  10.465 11.441     3.3 / 295  18.5  129  .12

          24 18  09 44.70  +12 03.6  10.468 11.441     3.3 / 295  18.5  116  .20

          25 18  09 44.49  +12 05.0  10.472 11.441     3.3 / 296  18.5  104  .28

          26 18  09 44.29  +12 06.4  10.475 11.441     3.2 / 296  18.5   92  .37

          27 18  09 44.10  +12 07.8  10.479 11.442     3.2 / 296  18.5   80  .46

          28 18  09 43.90  +12 09.2  10.484 11.442     3.2 / 296  18.5   68  .56

          29 18  09 43.70  +12 10.6  10.488 11.442     3.1 / 296  18.5   56  .65

     Mar.  1 18  09 43.51  +12 12.0  10.493 11.442     3.1 / 296  18.5   45  .74

NAKANO

         **** Don't distribute anyone except personal use only ****

                (C) Copyright 2004 OAA/ComputingSection

write mail from CFAD0::NAKANO on 2004-02-04 03:46:31(JST).

 

    C/2003 A2 (Gleason)                                                   

Epoch 2003 Nov. 17.0 TT = JDT 2452960.5  

T 2003 Nov. 6.29980 TT                                  Nakano

q  11.4264213            (2000.0)            P               Q

z  -0.0006124      Peri.  346.68527     -0.78064174     -0.62206558

 +/-0.0000162      Node   154.54452     +0.58548720     -0.76164355

e   1.0069976      Incl.    8.06133     +0.21863946     -0.18147597

From 101 observations 2002 Jan. 8-2003 Mar. 26, mean residual 0".61.

   (1/a)org.= +0.000025, (1/a)fut.= +0.000118 (+/-0.000016), Q= 7.



NAKANO

         **** Don't distribute anyone except personal use only ****

                (C) Copyright 2003 OAA/ComputingSection

write mail from CFAD0::NAKANO on 2003-04-29 01:22:29(JST).

 



    C/2003 A2 (Gleason)                                                   

Epoch 2003 Nov. 17.0 TT = JDT 2452960.5  

T 2003 Nov. 5.81404 TT                                  Nakano

q  11.4270030            (2000.0)            P               Q

z  -0.0006060      Peri.  346.66673     -0.78044384     -0.62231396

 +/-0.0000172      Node   154.54483     +0.58572959     -0.76145688

e   1.0069244      Incl.    8.06126     +0.21869674     -0.18140770

From 94 observations 2002 Jan. 8-2003 Mar. 8, mean residual 0".62.

   (1/a)org.= +0.000032, (1/a)fut.= +0.000125 (+/-0.000017), Q= 7.



NAKANO

         **** Don't distribute anyone except personal use only ****

                (C) Copyright 2003 OAA/ComputingSection

write mail from CFAD0::NAKANO on 2003-03-20 00:36:21(JST).

 

◎C/2003 A2の軌道と予報位置です



 2002年年初以来の観測が見つかり,軌道がほぼ確定しました.接触軌道の

離心率は,大きく,双曲線ですが,原初軌道の(1/a)org.= +0.000026となり

ます.



    C/2003 A2 (Gleason)                                                   

Epoch 2003 Nov. 17.0 TT = JDT 2452960.5  

T 2003 Nov. 6.07052 TT                                  Nakano

q  11.4267287            (2000.0)            P               Q

z  -0.0006114      Peri.  346.67669     -0.78054855     -0.62218250

 +/-0.0000202      Node   154.54451     +0.58560128     -0.76155586

e   1.0069867      Incl.    8.06133     +0.21866664     -0.18144313

From 78 observations 2002 Jan. 8-2003 Feb. 12, mean residual 0".62.

   (1/a)org.= +0.000026, (1/a)fut.= +0.000119 (+/-0.000020), Q= 7.

 

Date/        TT  R.A.(2000) Decl.     Delta   r     Daily motion  Mag.  Moon Age

              h    h  m       。  ,                      ,  / PA 。  m1      。

2003 Feb. 15 12  08 48.40  +14 18.4  10.553 11.505     3.2 / 293  18.7    9  .97

          16 12  08 48.20  +14 19.6  10.557 11.504     3.1 / 293  18.7   13  .99

          17 12  08 48.00  +14 20.8  10.561 11.504     3.1 / 293  18.7   26  .99

          18 12  08 47.80  +14 22.0  10.565 11.503     3.1 / 293  18.7   40  .97

          19 12  08 47.60  +14 23.2  10.570 11.503     3.0 / 293  18.7   54  .91

          20 12  08 47.41  +14 24.4  10.575 11.502     3.0 / 293  18.7   69  .84

          21 12  08 47.22  +14 25.6  10.581 11.501     3.0 / 294  18.7   83  .74

          22 12  08 47.03  +14 26.8  10.586 11.501     2.9 / 294  18.7   98  .63

          23 12  08 46.85  +14 28.0  10.592 11.500     2.9 / 294  18.7  112  .52

          24 12  08 46.67  +14 29.2  10.598 11.500     2.8 / 294  18.7  125  .41

          25 12  08 46.49  +14 30.3  10.605 11.499     2.8 / 294  18.7  139  .31

          26 12  08 46.31  +14 31.5  10.612 11.499     2.8 / 295  18.7  152  .21

          27 12  08 46.14  +14 32.6  10.619 11.498     2.7 / 295  18.7  164  .13

          28 12  08 45.97  +14 33.8  10.626 11.498     2.7 / 295  18.7  172  .07

     Mar.  1 12  08 45.80  +14 34.9  10.634 11.497     2.6 / 295  18.7  166  .03

           2 12  08 45.64  +14 36.0  10.642 11.496     2.5 / 296  18.7  154  .01

           3 12  08 45.48  +14 37.1  10.650 11.496     2.5 / 296  18.7  142  .00

           4 12  08 45.33  +14 38.2  10.658 11.495     2.4 / 296  18.7  130  .02

           5 12  08 45.18  +14 39.3  10.667 11.495     2.4 / 297  18.7  118  .05

           6 12  08 45.03  +14 40.4  10.676 11.494     2.3 / 297  18.7  106  .11

           7 12  08 44.89  +14 41.4  10.685 11.494     2.3 / 297  18.7   94  .17

           8 12  08 44.75  +14 42.5  10.694 11.493     2.2 / 298  18.8   83  .25

           9 12  08 44.62  +14 43.5  10.704 11.493     2.1 / 298  18.8   71  .33

          10 12  08 44.49  +14 44.5  10.714 11.492     2.1 / 299  18.8   59  .42

          11 12  08 44.36  +14 45.5  10.724 11.491     2.0 / 299  18.8   47  .52

          12 12  08 44.24  +14 46.5  10.734 11.491     1.9 / 300  18.8   35  .62

          13 12  08 44.13  +14 47.5  10.744 11.490     1.9 / 301  18.8   23  .71

          14 12  08 44.02  +14 48.4  10.755 11.490     1.8 / 301  18.8   11  .80

          15 12  08 43.91  +14 49.4  10.766 11.489     1.7 / 302  18.8   10  .88

          16 12  08 43.81  +14 50.3  10.777 11.489     1.7 / 303  18.8   21  .95

          17 12  08 43.71  +14 51.2  10.789 11.488     1.6 / 304  18.8   35  .99

          18 12  08 43.62  +14 52.1  10.800 11.488     1.5 / 305  18.8   49 1.00

          19 12  08 43.53  +14 52.9  10.812 11.487     1.5 / 306  18.8   64  .98

          20 12  08 43.45  +14 53.8  10.824 11.487     1.4 / 307  18.8   79  .94

          21 12  08 43.37  +14 54.6  10.836 11.486     1.3 / 308  18.8   94  .87

          22 12  08 43.30  +14 55.5  10.848 11.486     1.3 / 309  18.8  109  .78

          23 12  08 43.23  +14 56.3  10.861 11.485     1.2 / 311  18.8  123  .67

          24 12  08 43.17  +14 57.1  10.874 11.485     1.1 / 313  18.8  137  .56

